Wayne, NE

4:38 PM CDT on May 22, 2017 (GMT -0500)
Wayne Municipal

Weather History for KLCG - April, 2013

Change the Weather History Date:

Wednesday, April 3, 2013

  Actual Average (KOFK) Record (KOFK)
Temperature  
Mean Temperature 44 °F -  
Max Temperature 59 °F 52 °F 87 °F (1921)
Min Temperature 28 °F 31 °F -5 °F (1936)
Degree Days  
Heating Degree Days 22    
Moisture  
Dew Point 24 °F    
Average Humidity 51    
Maximum Humidity 79    
Minimum Humidity 24    
Precipitation  
Precipitation 0.00 in - - ()
Sea Level Pressure  
Sea Level Pressure 30.22 in    
Wind  
Wind Speed 12 mph (South)    
Max Wind Speed 23 mph    
Max Gust Speed 30 mph    
Visibility 10 miles    
Events      
Averages and records for this station are not official NWS values.
T = Trace of Precipitation, MM = Missing Value Source: NWS Daily Summary

Daily Weather History Graph

Daily Weather History Graph

Search for Another Location

Airport or City:

Trip Planner

Search our weather history database for the weather conditions in past years. The results will help you decide how hot, cold, wet, or windy it might be!

Date:

Astronomy

Apr. 03, 2013 Rise Set
Actual Time 7:06 AM CDT 7:56 PM CDT
Civil Twilight 6:38 AM CDT 8:24 PM CDT
Nautical Twilight 6:04 AM CDT 8:58 PM CDT
Astronomical Twilight 5:29 AM CDT 9:33 PM CDT
Moon 2:55 AM CDT (4/3) 1:02 PM CDT (4/3)
Length of Visible Light 13h 46m
Length of Day
12h 49m
Last Quarter, 44% of the Moon is Illuminated
Apr 3
Last Quarter
Apr 10
New
Apr 18
First Quarter
Apr 25
Full
May 2
Last Quarter

Hourly Weather History & Observations

Time (CDT) Temp. Windchill Dew Point Humidity Pressure Visibility Wind Dir Wind Speed Gust Speed Precip Events Conditions
12:15 AM 34.0 °F 26.0 °F 23.9 °F 67% 30.27 in 10.0 mi ESE 10.4 mph - N/A   Clear
12:35 AM 33.8 °F 27.7 °F 23.7 °F 67% 30.27 in 10.0 mi ESE 6.9 mph - N/A   Clear
12:55 AM 32.4 °F 25.3 °F 23.7 °F 70% 30.27 in 10.0 mi ESE 8.1 mph - N/A   Clear
1:15 AM 32.2 °F 24.4 °F 23.4 °F 70% 30.27 in 10.0 mi SE 9.2 mph - N/A   Clear
1:35 AM 32.0 °F 24.8 °F 23.2 °F 70% 30.28 in 10.0 mi SE 8.1 mph - N/A   Clear
1:55 AM 30.9 °F 24.3 °F 23.0 °F 72% 30.28 in 10.0 mi SE 6.9 mph - N/A   Clear
2:15 AM 31.1 °F 24.5 °F 23.2 °F 72% 30.28 in 10.0 mi SE 6.9 mph - N/A   Scattered Clouds
2:35 AM 31.3 °F 23.9 °F 23.0 °F 71% 30.28 in 10.0 mi SE 8.1 mph - N/A   Mostly Cloudy
2:55 AM 30.7 °F 24.9 °F 22.8 °F 72% 30.29 in 10.0 mi SSE 5.8 mph - N/A   Scattered Clouds
3:15 AM 30.2 °F 23.4 °F 23.0 °F 75% 30.29 in 10.0 mi SSE 6.9 mph - N/A   Clear
3:35 AM 30.2 °F 23.4 °F 23.0 °F 75% 30.29 in 10.0 mi SE 6.9 mph - N/A   Clear
3:55 AM 30.2 °F 21.9 °F 22.8 °F 74% 30.29 in 10.0 mi SSE 9.2 mph - N/A   Clear
4:15 AM 30.4 °F 21.0 °F 22.6 °F 73% 30.28 in 10.0 mi SE 11.5 mph - N/A   Clear
4:35 AM 30.2 °F 20.8 °F 22.5 °F 73% 30.28 in 10.0 mi SE 11.5 mph - N/A   Clear
4:55 AM 30.0 °F 20.0 °F 22.5 °F 73% 30.27 in 10.0 mi SE 12.7 mph - N/A   Clear
5:15 AM 29.5 °F 19.9 °F 22.5 °F 75% 30.27 in 10.0 mi SE 11.5 mph - N/A   Clear
5:35 AM 29.3 °F 20.2 °F 22.1 °F 75% 30.27 in 10.0 mi SSE 10.4 mph - N/A   Clear
5:55 AM 28.8 °F 19.0 °F 22.5 °F 77% 30.28 in 10.0 mi SSE 11.5 mph - N/A   Clear
6:15 AM 28.8 °F 19.5 °F 23.0 °F 79% 30.28 in 10.0 mi SSE 10.4 mph - N/A   Clear
6:35 AM 28.8 °F 19.5 °F 22.8 °F 78% 30.28 in 10.0 mi SSE 10.4 mph - N/A   Clear
6:55 AM 28.6 °F 18.7 °F 22.8 °F 79% 30.28 in 10.0 mi SSE 11.5 mph - N/A   Clear
7:15 AM 28.6 °F 18.7 °F 22.8 °F 79% 30.28 in 10.0 mi SSE 11.5 mph - N/A   Clear
7:35 AM 29.3 °F 19.6 °F 23.2 °F 78% 30.29 in 10.0 mi SSE 11.5 mph - N/A   Clear
7:55 AM 30.2 °F 20.8 °F 23.4 °F 76% 30.29 in 10.0 mi South 11.5 mph - N/A   Clear
8:15 AM 31.5 °F 21.8 °F 23.5 °F 73% 30.29 in 10.0 mi South 12.7 mph - N/A   Clear
8:35 AM 32.5 °F 23.7 °F 23.9 °F 70% 30.28 in 10.0 mi South 11.5 mph - N/A   Clear
8:55 AM 34.2 °F 24.4 °F 24.3 °F 67% 30.28 in 10.0 mi South 15.0 mph - N/A   Clear
9:15 AM 36.1 °F 27.3 °F 24.6 °F 63% 30.28 in 10.0 mi South 13.8 mph - N/A   Clear
9:35 AM 37.4 °F 28.5 °F 23.9 °F 58% 30.28 in 10.0 mi South 15.0 mph - N/A   Clear
9:55 AM 38.5 °F 29.9 °F 24.6 °F 58% 30.27 in 10.0 mi South 15.0 mph - N/A   Clear
10:15 AM 40.1 °F 32.0 °F 24.4 °F 54% 30.27 in 10.0 mi South 15.0 mph 19.6 mph N/A   Clear
10:35 AM 43.0 °F 35.4 °F 24.6 °F 48% 30.27 in 10.0 mi South 16.1 mph 20.7 mph N/A   Clear
10:55 AM 45.0 °F 37.6 °F 24.8 °F 45% 30.27 in 10.0 mi South 17.3 mph 21.9 mph N/A   Clear
11:15 AM 46.6 °F - 24.6 °F 42% 30.26 in 10.0 mi South 18.4 mph 21.9 mph N/A   Clear
11:35 AM 48.4 °F - 24.3 °F 39% 30.25 in 10.0 mi South 19.6 mph 24.2 mph N/A   Clear
11:55 AM 50.4 °F - 24.1 °F 36% 30.25 in 10.0 mi SSW 19.6 mph 26.5 mph N/A   Clear
12:15 PM 52.2 °F - 23.2 °F 32% 30.24 in 10.0 mi South 20.7 mph 26.5 mph N/A   Clear
12:35 PM 54.1 °F - 23.0 °F 30% 30.24 in 10.0 mi SSW 19.6 mph 24.2 mph N/A   Clear
12:55 PM 54.5 °F - 23.2 °F 30% 30.22 in 10.0 mi SSW 18.4 mph 27.6 mph N/A   Clear
1:15 PM 56.3 °F - 23.5 °F 28% 30.22 in 10.0 mi SSW 18.4 mph 28.8 mph N/A   Clear
1:35 PM 56.5 °F - 23.7 °F 28% 30.21 in 10.0 mi SSW 18.4 mph 27.6 mph N/A   Clear
1:55 PM 57.2 °F - 23.7 °F 28% 30.21 in 10.0 mi SSW 23.0 mph 29.9 mph N/A   Clear
2:15 PM 57.2 °F - 23.2 °F 27% 30.20 in 10.0 mi SW 18.4 mph 29.9 mph N/A   Clear
2:35 PM 57.6 °F - 22.8 °F 26% 30.20 in 10.0 mi SSW 20.7 mph 27.6 mph N/A   Clear
2:55 PM 58.5 °F - 22.8 °F 25% 30.19 in 10.0 mi SSW 20.7 mph 26.5 mph N/A   Clear
3:15 PM 58.1 °F - 22.5 °F 25% 30.19 in 10.0 mi SSW 21.9 mph 27.6 mph N/A   Clear
3:35 PM 59.4 °F - 22.8 °F 25% 30.18 in 10.0 mi SSW 18.4 mph 25.3 mph N/A   Clear
3:55 PM 59.7 °F - 22.1 °F 24% 30.17 in 10.0 mi SSW 18.4 mph 25.3 mph N/A   Clear
4:15 PM 58.3 °F - 21.7 °F 24% 30.17 in 10.0 mi SSW 19.6 mph 27.6 mph N/A   Clear
4:35 PM 59.0 °F - 22.1 °F 24% 30.16 in 10.0 mi SW 18.4 mph 26.5 mph N/A   Clear
4:55 PM 59.2 °F - 22.6 °F 25% 30.15 in 10.0 mi SW 17.3 mph 28.8 mph N/A   Clear
5:15 PM 59.9 °F - 22.6 °F 24% 30.15 in 10.0 mi SSW 20.7 mph - N/A   Clear
5:35 PM 59.5 °F - 22.8 °F 24% 30.15 in 10.0 mi SSW 19.6 mph - N/A   Clear
5:55 PM 59.2 °F - 22.6 °F 25% 30.14 in 10.0 mi SSW 19.6 mph 25.3 mph N/A   Clear
6:15 PM 58.8 °F - 22.8 °F 25% 30.14 in 10.0 mi SSW 18.4 mph - N/A   Clear
6:35 PM 58.3 °F - 23.9 °F 27% 30.13 in 10.0 mi SSW 18.4 mph 24.2 mph N/A   Clear
6:55 PM 57.2 °F - 23.4 °F 27% 30.13 in 10.0 mi SSW 19.6 mph 25.3 mph N/A   Clear
7:15 PM 55.6 °F - 23.7 °F 29% 30.14 in 10.0 mi SSW 13.8 mph - N/A   Clear
7:35 PM 54.1 °F - 23.2 °F 30% 30.15 in 10.0 mi SSW 13.8 mph - N/A   Clear
7:55 PM 51.4 °F - 23.5 °F 34% 30.15 in 10.0 mi SSW 10.4 mph - N/A   Clear
8:15 PM 49.6 °F - 24.4 °F 37% 30.15 in 10.0 mi SSW 12.7 mph - N/A   Clear
8:35 PM 48.6 °F - 25.2 °F 40% 30.15 in 10.0 mi South 11.5 mph - N/A   Clear
8:55 PM 45.9 °F 40.4 °F 25.5 °F 45% 30.16 in 10.0 mi South 11.5 mph - N/A   Clear
9:15 PM 44.6 °F 38.4 °F 25.5 °F 47% 30.16 in 10.0 mi South 12.7 mph - N/A   Clear
9:35 PM 43.7 °F 37.7 °F 25.5 °F 49% 30.17 in 10.0 mi South 11.5 mph - N/A   Clear
9:55 PM 42.8 °F 36.2 °F 25.7 °F 51% 30.17 in 10.0 mi South 12.7 mph - N/A   Clear
10:15 PM 41.9 °F 35.0 °F 25.7 °F 53% 30.17 in 10.0 mi South 12.7 mph - N/A   Clear
10:35 PM 41.2 °F 35.0 °F 25.7 °F 54% 30.17 in 10.0 mi SSW 10.4 mph - N/A   Clear
10:55 PM 41.7 °F 35.2 °F 25.7 °F 53% 30.17 in 10.0 mi SSW 11.5 mph - N/A   Clear
11:15 PM 41.0 °F 33.5 °F 25.7 °F 55% 30.16 in 10.0 mi South 13.8 mph - N/A   Clear
11:35 PM 41.4 °F 33.3 °F 25.2 °F 53% 30.15 in 10.0 mi SSW 16.1 mph - N/A   Clear
11:55 PM 41.9 °F 34.0 °F 24.8 °F 51% 30.15 in 10.0 mi SSW 16.1 mph 21.9 mph N/A   Clear